SL-16 DEB, 39722

Orbit data source: Space-Track

SL-16 DEB, 39722 is space debris in LEO originally from a launch on Fri, 25 Dec 1992 UTC launched from the Tyuratam Missile And Space Complex (TTMTR). Debris objects in space refer to the collection of defunct objects orbiting the Earth. Examples of debris include non-operational satellites, rocket bodies, and fragments generated from explosions, collisions, or faulty payload assembly.

Loading next visibility...
Identifier
39722, 1992-093KN
Orbit
LEO
Country
Flag of CISCIS
Related business
Manufacturer
Unknown
Mission
Spacecraft
Bus & Motor
Unknown
Mass
Unknown
Launch date (UTC)
1992-12-25 (33 years ago)
Launch vehicle
Unknown
Launch site
Tyuratam Missile And Space Complex (TTMTR)
Object type
Payload
Rocket body
Debris
Shape & HBR
Unknown shape, 0.1 m
Radar Cross Section
Small (<0.1 m²)

Expand to show TLE details & history
Last TLE update: 2 days ago

TLE from 2 days ago
0 SL-16 DEB
1 39722U 92093KN  25351.88477472  .00000426  00000-0  29586-3 0  9994
2 39722  70.8940  31.1414 0103938 174.0911 359.5681 14.01915314596235
Epoch: 2025-12-17T21:14Z
TLE epoch observation values (Epoch: 2025-12-17T21:14:04.535Z)
Latitude
5.92942°
Longitude
163.82349°
Altitude
813.453 km
Speed
7.486 km/s
True Right ascension
13h 56m 21s
True Declination
5° 53' 40"
Sunlit
Object was in daylight at epoch
Visualization orbit readout
Latitude
Unknown
Longitude
Unknown
Altitude
Unknown
Speed
Unknown
Apparent Right ascension
Unknown
Apparent Declination
Unknown
Sunlit
N/A
Visualization observer readout
Local Sidereal Time
11:26:10
Azimuth
Unknown
Elevation
Unknown
Doppler factor
Unknown
Orbital elements
Apogee altitude
960.611 km
Perigee altitude
809.625 km
Semi-major axis
7,263.255 km
Eccentricity
0.01039
Inclination
70.894°
RAAN
31.1414°
Arg. of periapsis
174.0911°
True anomaly
359.559°
Mean anomaly
359.5681°
Eccentric anomaly
359.56356°
Mean motion
3.50628 °/min
Orbital period
102.67 mins
BSTAR
0.00029586
Loading maneuver chart data...
Computing Atmospheric mass density...
Loading historical data...
Loading historical data...
Loading historical data...
Loading historical data...
Loading historical data...
Loading historical data...
Loading historical data...

Documentation

Showing up to 5 results
|